TimeCDT,TemperatureF,Dew PointF,Humidity,Sea Level PressureIn,VisibilityMPH,Wind Direction,Wind SpeedMPH,Gust SpeedMPH,PrecipitationIn,Events,Conditions,WindDirDegrees,DateUTC
12:53 AM,53.1,51.1,93,30.07,10.0,Calm,Calm,-,N/A,,Clear,0,2013-07-24 05:53:00
1:53 AM,53.1,51.1,93,30.06,10.0,Calm,Calm,-,N/A,,Clear,0,2013-07-24 06:53:00
2:53 AM,50.0,48.9,96,30.06,10.0,Calm,Calm,-,N/A,,Clear,0,2013-07-24 07:53:00
3:53 AM,50.0,48.0,93,30.06,10.0,Calm,Calm,-,N/A,,Mostly Cloudy,0,2013-07-24 08:53:00
4:53 AM,48.9,48.0,97,30.07,10.0,WNW,3.5,-,N/A,,Partly Cloudy,300,2013-07-24 09:53:00
5:53 AM,50.0,48.0,93,30.07,10.0,Calm,Calm,-,N/A,,Clear,0,2013-07-24 10:53:00
6:53 AM,53.1,51.1,93,30.08,10.0,Calm,Calm,-,N/A,,Mostly Cloudy,0,2013-07-24 11:53:00
7:53 AM,57.9,53.1,84,30.07,10.0,Calm,Calm,-,N/A,,Clear,0,2013-07-24 12:53:00
8:53 AM,63.0,52.0,67,30.07,10.0,Calm,Calm,-,N/A,,Clear,0,2013-07-24 13:53:00
9:53 AM,69.1,50.0,51,30.07,10.0,Variable,4.6,-,N/A,,Clear,0,2013-07-24 14:53:00
10:53 AM,70.0,50.0,49,30.06,10.0,West,6.9,-,N/A,,Clear,280,2013-07-24 15:53:00
11:53 AM,70.0,48.9,47,30.05,10.0,NW,5.8,-,N/A,,Clear,310,2013-07-24 16:53:00
12:53 PM,73.0,50.0,44,30.04,10.0,NW,9.2,16.1,N/A,,Clear,320,2013-07-24 17:53:00
1:53 PM,75.0,51.1,43,30.02,10.0,WNW,11.5,-,N/A,,Partly Cloudy,300,2013-07-24 18:53:00
2:53 PM,77.0,50.0,39,30.01,10.0,WSW,8.1,-,N/A,,Clear,240,2013-07-24 19:53:00
3:53 PM,77.0,52.0,42,29.99,10.0,West,9.2,-,N/A,,Partly Cloudy,260,2013-07-24 20:53:00
4:53 PM,77.0,52.0,42,29.98,10.0,West,10.4,17.3,N/A,,Scattered Clouds,260,2013-07-24 21:53:00
5:53 PM,77.0,53.1,43,29.95,10.0,SW,11.5,-,N/A,,Mostly Cloudy,230,2013-07-24 22:53:00
6:53 PM,73.9,55.0,52,29.94,10.0,SW,8.1,-,N/A,,Mostly Cloudy,220,2013-07-24 23:53:00
7:53 PM,68.0,61.0,78,29.95,5.0,West,6.9,-,0.02,Rain,Light Rain,280,2013-07-25 00:53:00
8:53 PM,66.9,60.1,79,29.94,10.0,Calm,Calm,-,0.00,,Mostly Cloudy,0,2013-07-25 01:53:00
9:53 PM,64.0,61.0,90,29.94,10.0,Calm,Calm,-,N/A,,Partly Cloudy,0,2013-07-25 02:53:00
10:53 PM,63.0,59.0,87,29.94,10.0,Calm,Calm,-,N/A,,Clear,0,2013-07-25 03:53:00
11:53 PM,62.1,59.0,90,29.95,10.0,Calm,Calm,-,N/A,,Clear,0,2013-07-25 04:53:00